Kykotsmovi, AZ (86039)

5:15 AM MST on May 04, 2015 (GMT -0700)
Winslow-Lindbergh Regional | | Change Station
CLOSE
Current Station
Airport
Location: Winslow,
Elevation: 4882 ft
Nearby Weather Stations

Elev 4882 ft 35.03 °N, 110.72 °W | Updated 19 minutes ago

Mostly Cloudy
Mostly Cloudy
53 °F
Feels Like 53 °F
N
0
Wind Variable Wind from North

Today
High -- | Low -- °F
--% Chance of Precip.
Yesterday
High -- | Low -- °F
Precip. -- in
5:27 AM 7:11 PM
Full, 100% visible
Pressure 29.83 in
Visibility 10.0 miles
Clouds Clear
Dew Point 42 °F
Humidity 66%
Rainfall 0.00 in
Snow Depth Not available.
UV 0 out of 12
Pollen 5.50 out of 12
Air Quality Not available.
Flu Activity Local Activity
METAR KINW 041156Z AUTO 00000KT 10SM CLR 12/06 A2999 RMK AO2 SLP100 70004 T01170056 10144 20094 51002

More Conditions Fewer Conditions

Pressure 29.83 in
Visibility 10.0 miles
Clouds Clear
Dew Point 42 °F
Humidity 66%
Rainfall 0.00 in
Snow Depth Not available.
UV 0 out of 12
Pollen 5.50 out of 12
Air Quality Not available.
Flu Activity Local Activity
METAR KINW 041156Z AUTO 00000KT 10SM CLR 12/06 A2999 RMK AO2 SLP100 70004 T01170056 10144 20094 51002

More Conditions Fewer Conditions

Nepal has a long way to go to dig out and rebuild from a devastating earthquake. We have teamed up with several charities and organizations to make contributing to the relief effort as easy as possible.
How you can help: Portlight Strategies | Red Cross

10-Day Weather Forecast

Almanac

Astronomy

May. 04, 2015 Rise Set
Actual Time
Civil Twilight
Nautical Twilight
Astronomical Twilight
Moon
Length of Visible Light
Length of Day
Tomorrow will be .
, % of the Moon is Illuminated

Today's Extremes

State Highs State Lows

Community

WunderPhotos

Upload Photos

1,818,582 photos uploaded!

WunderBlogs® & News

Nearby

Air Quality

  Air Quality AQ Index Pollutant
Not available.

Snow Depth

Station Depth Elevation

Earthquake Activity

City Distance Mag. Time & Date
Minimum magnitude displayed is 2.5.

Coastal Water Temperatures

Place Temperature

Stations

Nearby Weather Stations

Station Location Temp. Windchill Dew Point Humidity Wind Precip. Elev Updated Type